Time,TemperatureF,DewpointF,PressureIn,WindDirection,WindDirectionDegrees,WindSpeedMPH,WindSpeedGustMPH,Humidity,HourlyPrecipIn,Conditions,Clouds,dailyrainin,SolarRadiationWatts/m^2,SoftwareType,DateUTC
2013-08-08 00:01:00,58.9,55.4,29.99,North,355,0.0,0.0,88,0.00,,---,0.00,0.00,VWS V14.01,2013-08-08 05:01:00,
2013-08-08 00:06:00,58.6,55.1,30.00,North,355,0.0,0.0,88,0.00,,---,0.00,0.00,VWS V14.01,2013-08-08 05:06:00,
2013-08-08 00:11:00,58.4,54.9,29.99,North,355,0.0,0.0,88,0.00,,---,0.00,0.00,VWS V14.01,2013-08-08 05:11:00,
2013-08-08 00:16:00,58.2,54.7,29.99,North,355,0.0,0.0,88,0.00,,---,0.00,0.00,VWS V14.01,2013-08-08 05:16:00,
2013-08-08 00:21:00,58.1,54.6,29.99,North,355,0.0,0.0,88,0.00,,---,0.00,0.00,VWS V14.01,2013-08-08 05:21:00,
2013-08-08 00:26:00,57.9,54.4,29.99,North,355,0.0,0.0,88,0.00,,---,0.00,0.00,VWS V14.01,2013-08-08 05:26:00,
2013-08-08 00:31:00,57.8,54.6,30.00,North,355,0.0,0.0,89,0.00,,---,0.00,0.00,VWS V14.01,2013-08-08 05:31:00,
2013-08-08 00:36:00,57.7,54.5,29.99,North,355,0.0,0.0,89,0.00,,---,0.00,0.00,VWS V14.01,2013-08-08 05:36:00,
2013-08-08 00:41:00,57.7,54.8,30.00,North,355,0.0,0.0,90,0.00,,---,0.00,0.00,VWS V14.01,2013-08-08 05:41:00,
2013-08-08 00:46:00,57.7,54.8,30.00,North,355,0.0,0.0,90,0.00,,---,0.00,0.00,VWS V14.01,2013-08-08 05:46:00,
2013-08-08 00:51:00,57.6,54.7,29.99,North,355,0.0,0.0,90,0.00,,---,0.00,0.00,VWS V14.01,2013-08-08 05:51:00,
2013-08-08 00:56:00,57.6,54.7,29.99,North,355,0.0,0.0,90,0.00,,---,0.00,0.00,VWS V14.01,2013-08-08 05:56:00,
2013-08-08 01:01:00,57.5,54.9,29.98,North,355,0.0,0.0,91,0.00,,---,0.00,0.00,VWS V14.01,2013-08-08 06:01:00,
2013-08-08 01:06:00,57.5,54.9,29.99,North,355,0.0,0.0,91,0.00,,---,0.00,0.00,VWS V14.01,2013-08-08 06:06:00,
2013-08-08 01:11:00,57.4,54.8,29.98,North,355,0.0,0.0,91,0.00,,---,0.00,0.00,VWS V14.01,2013-08-08 06:11:00,
2013-08-08 01:16:00,57.3,54.7,29.99,North,355,0.0,0.0,91,0.00,,---,0.00,0.00,VWS V14.01,2013-08-08 06:16:00,
2013-08-08 01:21:00,57.3,54.7,29.99,North,355,0.0,0.0,91,0.00,,---,0.00,0.00,VWS V14.01,2013-08-08 06:21:00,
2013-08-08 01:26:00,57.3,54.7,29.98,North,355,0.0,0.0,91,0.00,,---,0.00,0.00,VWS V14.01,2013-08-08 06:26:00,
2013-08-08 01:31:00,57.2,54.6,29.98,North,355,0.0,0.0,91,0.00,,---,0.00,0.00,VWS V14.01,2013-08-08 06:31:00,
2013-08-08 01:36:00,57.1,54.5,29.98,North,355,0.0,0.0,91,0.00,,---,0.00,0.00,VWS V14.01,2013-08-08 06:36:00,
2013-08-08 01:41:00,57.0,54.4,29.98,North,355,0.0,0.0,91,0.00,,---,0.00,0.00,VWS V14.01,2013-08-08 06:41:00,
2013-08-08 01:46:00,57.0,54.4,29.99,North,355,0.0,0.0,91,0.00,,---,0.00,0.00,VWS V14.01,2013-08-08 06:46:00,
2013-08-08 01:51:00,56.9,54.0,29.99,North,355,0.0,0.0,90,0.00,,---,0.00,0.00,VWS V14.01,2013-08-08 06:51:00,
2013-08-08 01:56:00,56.9,54.3,29.99,North,355,0.0,0.0,91,0.00,,---,0.00,0.00,VWS V14.01,2013-08-08 06:56:00,
2013-08-08 02:01:00,56.9,54.3,29.99,North,355,0.0,0.0,91,0.00,,---,0.00,0.00,VWS V14.01,2013-08-08 07:01:00,
2013-08-08 02:06:00,56.9,54.3,29.99,North,355,0.0,0.0,91,0.00,,---,0.00,0.00,VWS V14.01,2013-08-08 07:06:00,
2013-08-08 02:11:00,56.9,54.0,29.99,North,355,0.0,0.0,90,0.00,,---,0.00,0.00,VWS V14.01,2013-08-08 07:11:00,
2013-08-08 02:16:00,56.9,54.0,29.99,North,355,0.0,0.0,90,0.00,,---,0.00,0.00,VWS V14.01,2013-08-08 07:16:00,
2013-08-08 02:21:00,56.8,53.9,29.98,North,355,0.0,0.0,90,0.00,,---,0.00,0.00,VWS V14.01,2013-08-08 07:21:00,
2013-08-08 02:26:00,56.7,53.8,29.98,North,355,0.0,0.0,90,0.00,,---,0.00,0.00,VWS V14.01,2013-08-08 07:26:00,
2013-08-08 02:31:00,56.7,53.8,29.98,North,355,0.0,0.0,90,0.00,,---,0.00,0.00,VWS V14.01,2013-08-08 07:31:00,
2013-08-08 02:36:00,56.8,53.9,29.99,North,355,0.0,0.0,90,0.00,,---,0.00,0.00,VWS V14.01,2013-08-08 07:36:00,
2013-08-08 02:41:00,56.8,53.9,29.98,North,355,0.0,0.0,90,0.00,,---,0.00,0.00,VWS V14.01,2013-08-08 07:41:00,
2013-08-08 02:46:00,56.8,53.9,29.99,North,355,0.0,0.0,90,0.00,,---,0.00,0.00,VWS V14.01,2013-08-08 07:46:00,
2013-08-08 02:51:00,56.7,53.8,29.99,North,355,0.0,0.0,90,0.00,,---,0.00,0.00,VWS V14.01,2013-08-08 07:51:00,
2013-08-08 02:56:00,56.7,53.8,29.99,North,355,0.0,0.0,90,0.00,,---,0.00,0.00,VWS V14.01,2013-08-08 07:56:00,
2013-08-08 03:01:00,56.6,54.0,29.98,North,355,0.0,0.0,91,0.00,,---,0.00,0.00,VWS V14.01,2013-08-08 08:01:00,
2013-08-08 03:06:00,56.7,54.1,29.98,North,355,0.0,0.0,91,0.00,,---,0.00,0.00,VWS V14.01,2013-08-08 08:06:00,
2013-08-08 03:11:00,56.8,54.2,29.98,North,355,0.0,0.0,91,0.00,,---,0.00,0.00,VWS V14.01,2013-08-08 08:11:00,
2013-08-08 03:16:00,56.8,54.2,29.99,North,355,0.0,0.0,91,0.00,,---,0.00,0.00,VWS V14.01,2013-08-08 08:16:00,
2013-08-08 03:21:00,56.8,54.2,29.98,North,355,0.0,0.0,91,0.00,,---,0.00,0.00,VWS V14.01,2013-08-08 08:21:00,
2013-08-08 03:26:00,56.8,54.2,29.98,North,355,0.0,0.0,91,0.00,,---,0.00,0.00,VWS V14.01,2013-08-08 08:26:00,
2013-08-08 03:31:00,56.9,54.3,29.98,North,355,0.0,0.0,91,0.00,,---,0.00,0.00,VWS V14.01,2013-08-08 08:31:00,
2013-08-08 03:36:00,56.9,54.6,29.97,North,355,0.0,0.0,92,0.00,,---,0.00,0.00,VWS V14.01,2013-08-08 08:36:00,
2013-08-08 03:41:00,56.8,54.5,29.97,North,355,0.0,0.0,92,0.00,,---,0.00,0.00,VWS V14.01,2013-08-08 08:41:00,
2013-08-08 03:46:00,56.7,54.1,29.98,North,355,0.0,0.0,91,0.00,,---,0.00,0.00,VWS V14.01,2013-08-08 08:46:00,
2013-08-08 03:51:00,56.6,54.0,29.97,North,355,0.0,0.0,91,0.00,,---,0.00,0.00,VWS V14.01,2013-08-08 08:51:00,
2013-08-08 03:56:00,56.6,54.3,29.98,North,355,0.0,0.0,92,0.00,,---,0.00,0.00,VWS V14.01,2013-08-08 08:56:00,
2013-08-08 04:01:00,56.6,54.3,29.97,North,355,0.0,0.0,92,0.00,,---,0.00,0.00,VWS V14.01,2013-08-08 09:01:00,
2013-08-08 04:06:00,56.7,54.4,29.97,North,355,0.0,0.0,92,0.00,,---,0.00,0.00,VWS V14.01,2013-08-08 09:06:00,
2013-08-08 04:11:00,56.7,54.4,29.97,North,355,0.0,0.0,92,0.00,,---,0.00,0.00,VWS V14.01,2013-08-08 09:11:00,
2013-08-08 04:16:00,56.8,54.5,29.97,North,355,0.0,0.0,92,0.00,,---,0.00,0.00,VWS V14.01,2013-08-08 09:16:00,
2013-08-08 04:21:00,56.9,54.6,29.97,North,355,0.0,0.0,92,0.00,,---,0.00,0.00,VWS V14.01,2013-08-08 09:21:00,
2013-08-08 04:26:00,57.0,54.7,29.97,North,355,0.0,0.0,92,0.00,,---,0.00,0.00,VWS V14.01,2013-08-08 09:26:00,
2013-08-08 04:31:00,57.1,54.8,29.97,North,355,0.0,0.0,92,0.00,,---,0.00,0.00,VWS V14.01,2013-08-08 09:31:00,
2013-08-08 04:36:00,57.2,54.6,29.97,North,355,0.0,0.0,91,0.00,,---,0.00,0.00,VWS V14.01,2013-08-08 09:36:00,
2013-08-08 04:41:00,57.5,54.9,29.97,North,355,0.0,0.0,91,0.00,,---,0.00,0.00,VWS V14.01,2013-08-08 09:41:00,
2013-08-08 04:46:00,57.7,54.8,29.96,North,355,0.0,0.0,90,0.00,,---,0.00,0.00,VWS V14.01,2013-08-08 09:46:00,
2013-08-08 04:51:00,57.7,54.8,29.97,North,355,0.0,0.0,90,0.00,,---,0.00,0.00,VWS V14.01,2013-08-08 09:51:00,
2013-08-08 04:56:00,57.5,54.6,29.96,North,355,0.0,0.0,90,0.00,,---,0.00,0.00,VWS V14.01,2013-08-08 09:56:00,
2013-08-08 05:01:00,57.4,54.5,29.95,North,355,0.0,0.0,90,0.00,,---,0.00,0.00,VWS V14.01,2013-08-08 10:01:00,
2013-08-08 05:06:00,57.3,54.1,29.95,North,355,0.0,0.0,89,0.00,,---,0.00,0.00,VWS V14.01,2013-08-08 10:06:00,
2013-08-08 05:11:00,57.3,54.1,29.95,North,355,0.0,0.0,89,0.00,,---,0.00,0.00,VWS V14.01,2013-08-08 10:11:00,
2013-08-08 05:16:00,57.4,54.2,29.95,North,355,0.0,0.0,89,0.00,,---,0.00,0.00,VWS V14.01,2013-08-08 10:16:00,
2013-08-08 05:21:00,57.2,54.0,29.95,North,355,0.0,0.0,89,0.00,,---,0.00,0.00,VWS V14.01,2013-08-08 10:21:00,
2013-08-08 05:26:00,56.9,53.7,29.96,North,355,0.0,0.0,89,0.00,,---,0.00,0.00,VWS V14.01,2013-08-08 10:26:00,
2013-08-08 05:31:00,56.8,53.9,29.95,North,355,0.0,0.0,90,0.00,,---,0.00,0.00,VWS V14.01,2013-08-08 10:31:00,
2013-08-08 05:36:00,56.7,53.8,29.95,North,355,0.0,0.0,90,0.00,,---,0.00,0.00,VWS V14.01,2013-08-08 10:36:00,
2013-08-08 05:41:00,56.8,53.9,29.95,North,355,0.0,0.0,90,0.00,,---,0.00,0.00,VWS V14.01,2013-08-08 10:41:00,
2013-08-08 05:46:00,56.7,53.8,29.95,North,355,0.0,0.0,90,0.00,,---,0.00,0.00,VWS V14.01,2013-08-08 10:46:00,
2013-08-08 05:51:00,56.7,53.8,29.95,North,355,0.0,0.0,90,0.00,,---,0.00,0.00,VWS V14.01,2013-08-08 10:51:00,
2013-08-08 05:56:00,56.7,54.1,29.95,North,355,0.0,0.0,91,0.00,,---,0.00,0.00,VWS V14.01,2013-08-08 10:56:00,
2013-08-08 06:01:00,56.7,54.1,29.95,North,355,0.0,0.0,91,0.00,,---,0.00,0.00,VWS V14.01,2013-08-08 11:01:00,
2013-08-08 06:06:00,56.7,54.1,29.95,North,355,0.0,0.0,91,0.00,,---,0.00,0.00,VWS V14.01,2013-08-08 11:06:00,
2013-08-08 06:11:00,56.7,54.1,29.94,North,355,0.0,0.0,91,0.00,,---,0.00,0.00,VWS V14.01,2013-08-08 11:11:00,
2013-08-08 06:16:00,56.6,54.0,29.94,North,355,0.0,0.0,91,0.00,,---,0.00,5.00,VWS V14.01,2013-08-08 11:16:00,
2013-08-08 06:21:00,56.7,54.1,29.94,North,355,0.0,0.0,91,0.00,,---,0.00,7.00,VWS V14.01,2013-08-08 11:21:00,
2013-08-08 06:26:00,56.8,54.2,29.94,North,355,0.0,0.0,91,0.00,,---,0.00,12.00,VWS V14.01,2013-08-08 11:26:00,
2013-08-08 06:31:00,56.9,54.3,29.95,North,355,0.0,0.0,91,0.00,,---,0.00,16.00,VWS V14.01,2013-08-08 11:31:00,
2013-08-08 06:36:00,56.9,54.0,29.95,North,355,0.0,0.0,90,0.00,,---,0.00,26.00,VWS V14.01,2013-08-08 11:36:00,
2013-08-08 06:41:00,56.9,54.0,29.95,North,355,0.0,0.0,90,0.00,,---,0.00,39.00,VWS V14.01,2013-08-08 11:41:00,
2013-08-08 06:46:00,57.1,54.2,29.95,North,355,0.0,0.0,90,0.00,,---,0.00,47.00,VWS V14.01,2013-08-08 11:46:00,
2013-08-08 06:51:00,57.5,54.6,29.95,North,355,0.0,0.0,90,0.00,,---,0.00,47.00,VWS V14.01,2013-08-08 11:51:00,
2013-08-08 06:56:00,57.8,54.9,29.96,North,355,0.0,0.0,90,0.00,,---,0.00,47.00,VWS V14.01,2013-08-08 11:56:00,
2013-08-08 07:01:00,58.1,55.2,29.96,North,355,0.0,0.0,90,0.00,,---,0.00,39.00,VWS V14.01,2013-08-08 12:01:00,
2013-08-08 07:06:00,58.4,55.2,29.96,North,355,0.0,0.0,89,0.00,,---,0.00,54.00,VWS V14.01,2013-08-08 12:06:00,
2013-08-08 07:11:00,58.5,55.3,29.96,North,355,0.0,0.0,89,0.00,,---,0.00,23.00,VWS V14.01,2013-08-08 12:11:00,
2013-08-08 07:16:00,58.7,55.5,29.97,North,355,0.0,0.0,89,0.00,,---,0.00,26.00,VWS V14.01,2013-08-08 12:16:00,
2013-08-08 07:21:00,58.8,55.6,29.98,North,355,0.0,0.0,89,0.00,,---,0.00,21.00,VWS V14.01,2013-08-08 12:21:00,
2013-08-08 07:26:00,58.9,55.7,29.98,North,355,0.0,0.0,89,0.00,,---,0.00,28.00,VWS V14.01,2013-08-08 12:26:00,
2013-08-08 07:31:00,59.0,56.1,29.98,North,355,0.0,0.0,90,0.00,,---,0.00,16.00,VWS V14.01,2013-08-08 12:31:00,
2013-08-08 07:36:00,59.0,56.1,29.99,North,355,0.0,0.0,90,0.00,,---,0.00,14.00,VWS V14.01,2013-08-08 12:36:00,
2013-08-08 07:41:00,59.0,56.1,30.00,North,355,0.0,0.0,90,0.00,,---,0.00,11.00,VWS V14.01,2013-08-08 12:41:00,
2013-08-08 07:46:00,59.0,56.1,30.01,North,350,6.0,10.0,90,0.00,,---,0.00,9.00,VWS V14.01,2013-08-08 12:46:00,
2013-08-08 07:51:00,59.3,56.4,30.03,NW,307,12.0,16.0,90,0.00,,---,0.00,9.00,VWS V14.01,2013-08-08 12:51:00,
2013-08-08 07:56:00,59.0,56.1,30.05,WNW,296,12.0,16.0,90,0.03,,---,0.03,11.00,VWS V14.01,2013-08-08 12:56:00,
2013-08-08 08:01:00,59.0,56.1,30.06,West,279,15.0,17.0,90,0.06,,---,0.06,14.00,VWS V14.01,2013-08-08 13:01:00,
2013-08-08 08:06:00,58.7,56.1,30.05,West,271,9.0,10.0,91,0.08,,---,0.08,21.00,VWS V14.01,2013-08-08 13:06:00,
2013-08-08 08:11:00,58.6,56.0,30.05,West,272,4.0,10.0,91,0.09,,---,0.09,21.00,VWS V14.01,2013-08-08 13:11:00,
2013-08-08 08:16:00,58.5,55.9,30.05,West,272,3.0,10.0,91,0.10,,---,0.10,23.00,VWS V14.01,2013-08-08 13:16:00,
2013-08-08 08:21:00,58.5,55.9,30.04,West,272,0.0,1.0,91,0.12,,---,0.12,33.00,VWS V14.01,2013-08-08 13:21:00,
2013-08-08 08:26:00,58.5,56.2,30.04,West,272,0.0,1.0,92,0.13,,---,0.13,42.00,VWS V14.01,2013-08-08 13:26:00,
2013-08-08 08:31:00,58.5,56.2,30.04,West,272,3.0,3.0,92,0.14,,---,0.14,60.00,VWS V14.01,2013-08-08 13:31:00,
2013-08-08 08:36:00,58.6,56.3,30.03,West,266,2.0,4.0,92,0.15,,---,0.15,83.00,VWS V14.01,2013-08-08 13:36:00,
2013-08-08 08:41:00,58.6,56.6,30.02,SSE,161,1.0,5.0,93,0.16,,---,0.16,93.00,VWS V14.01,2013-08-08 13:41:00,
2013-08-08 08:46:00,58.7,56.7,30.03,SSE,165,0.0,5.0,93,0.16,,---,0.16,86.00,VWS V14.01,2013-08-08 13:46:00,
2013-08-08 08:51:00,58.9,56.9,30.04,SSE,168,0.0,0.0,93,0.16,,---,0.16,90.00,VWS V14.01,2013-08-08 13:51:00,
2013-08-08 08:56:00,59.0,57.0,30.03,South,169,0.0,0.0,93,0.16,,---,0.16,70.00,VWS V14.01,2013-08-08 13:56:00,
2013-08-08 09:01:00,59.0,57.0,30.03,South,169,0.0,0.0,93,0.16,,---,0.16,65.00,VWS V14.01,2013-08-08 14:01:00,
2013-08-08 09:06:00,59.0,57.0,30.03,South,169,0.0,0.0,93,0.09,,---,0.16,70.00,VWS V14.01,2013-08-08 14:06:00,
2013-08-08 09:11:00,59.0,57.0,30.03,South,169,0.0,0.0,93,0.09,,---,0.16,88.00,VWS V14.01,2013-08-08 14:11:00,
2013-08-08 09:16:00,59.4,57.4,30.03,SSE,165,0.0,0.0,93,0.09,,---,0.16,197.00,VWS V14.01,2013-08-08 14:16:00,
2013-08-08 09:21:00,59.9,57.9,30.03,South,173,0.0,0.0,93,0.06,,---,0.16,241.00,VWS V14.01,2013-08-08 14:21:00,
2013-08-08 09:26:00,60.2,58.2,30.03,South,188,0.0,0.0,93,0.06,,---,0.16,188.00,VWS V14.01,2013-08-08 14:26:00,
2013-08-08 09:31:00,60.4,58.1,30.03,SSW,200,0.0,0.0,92,0.06,,---,0.16,135.00,VWS V14.01,2013-08-08 14:31:00,
2013-08-08 09:36:00,60.6,58.0,30.03,South,181,4.0,5.0,91,0.01,,---,0.16,142.00,VWS V14.01,2013-08-08 14:36:00,
2013-08-08 09:41:00,60.8,57.8,30.02,South,177,5.0,10.0,90,0.01,,---,0.16,142.00,VWS V14.01,2013-08-08 14:41:00,
2013-08-08 09:46:00,60.9,58.0,30.02,South,184,10.0,10.0,90,0.01,,---,0.16,144.00,VWS V14.01,2013-08-08 14:46:00,
2013-08-08 09:51:00,61.0,58.0,30.02,South,188,3.0,10.0,90,0.00,,---,0.16,176.00,VWS V14.01,2013-08-08 14:51:00,
2013-08-08 09:56:00,61.1,58.2,30.02,SSW,197,6.0,10.0,90,0.00,,---,0.16,172.00,VWS V14.01,2013-08-08 14:56:00,
2013-08-08 10:01:00,61.3,58.7,30.02,SSW,207,7.0,10.0,91,0.00,,---,0.16,211.00,VWS V14.01,2013-08-08 15:01:00,
2013-08-08 10:06:00,61.4,58.5,30.02,SSW,192,14.0,14.0,90,0.00,,---,0.16,181.00,VWS V14.01,2013-08-08 15:06:00,
2013-08-08 10:11:00,61.4,58.5,30.02,SSW,192,6.0,14.0,90,0.00,,---,0.16,135.00,VWS V14.01,2013-08-08 15:11:00,
2013-08-08 10:16:00,61.3,58.3,30.02,SSW,210,6.0,14.0,90,0.00,,---,0.16,113.00,VWS V14.01,2013-08-08 15:16:00,
2013-08-08 10:21:00,61.3,58.7,30.02,SW,219,5.0,9.0,91,0.00,,---,0.16,132.00,VWS V14.01,2013-08-08 15:21:00,
2013-08-08 10:27:00,61.3,58.3,30.02,SSW,212,6.0,9.0,90,0.00,,---,0.16,142.00,VWS V14.01,2013-08-08 15:27:00,
2013-08-08 10:31:00,61.4,58.5,30.02,SW,225,6.0,11.0,90,0.00,,---,0.16,149.00,VWS V14.01,2013-08-08 15:31:00,
2013-08-08 10:37:00,61.6,58.6,30.03,SSW,209,5.0,7.0,90,0.00,,---,0.16,156.00,VWS V14.01,2013-08-08 15:37:00,
2013-08-08 10:42:00,61.7,58.7,30.02,South,191,8.0,12.0,90,0.00,,---,0.16,156.00,VWS V14.01,2013-08-08 15:42:00,
2013-08-08 10:47:00,61.5,58.2,30.02,SSW,196,12.0,15.0,89,0.00,,---,0.16,162.00,VWS V14.01,2013-08-08 15:47:00,
2013-08-08 10:52:00,61.5,58.2,30.01,South,181,11.0,15.0,89,0.00,,---,0.16,179.00,VWS V14.01,2013-08-08 15:52:00,
2013-08-08 10:57:00,61.4,58.1,30.01,South,175,7.0,15.0,89,0.00,,---,0.16,190.00,VWS V14.01,2013-08-08 15:57:00,
2013-08-08 11:02:00,61.4,58.1,30.02,South,177,7.0,15.0,89,0.01,,---,0.17,221.00,VWS V14.01,2013-08-08 16:02:00,
2013-08-08 11:07:00,61.3,57.7,30.01,South,184,10.0,16.0,88,0.01,,---,0.17,241.00,VWS V14.01,2013-08-08 16:07:00,
2013-08-08 11:12:00,61.3,57.7,30.01,South,190,5.0,16.0,88,0.01,,---,0.17,290.00,VWS V14.01,2013-08-08 16:12:00,
2013-08-08 11:17:00,61.4,58.1,30.01,South,188,6.0,16.0,89,0.01,,---,0.17,279.00,VWS V14.01,2013-08-08 16:17:00,
2013-08-08 11:22:00,61.6,58.3,30.01,South,173,7.0,10.0,89,0.01,,---,0.17,264.00,VWS V14.01,2013-08-08 16:22:00,
2013-08-08 11:27:00,61.7,58.1,30.01,South,169,5.0,11.0,88,0.01,,---,0.17,301.00,VWS V14.01,2013-08-08 16:27:00,
2013-08-08 11:32:00,62.0,58.4,30.01,SSE,167,5.0,11.0,88,0.01,,---,0.17,271.00,VWS V14.01,2013-08-08 16:32:00,
2013-08-08 11:37:00,62.3,58.7,30.01,South,169,4.0,5.0,88,0.01,,---,0.17,339.00,VWS V14.01,2013-08-08 16:37:00,
2013-08-08 11:42:00,62.7,58.8,30.00,South,170,5.0,8.0,87,0.01,,---,0.17,346.00,VWS V14.01,2013-08-08 16:42:00,
2013-08-08 11:47:00,62.9,58.7,30.01,SSE,166,0.0,8.0,86,0.01,,---,0.17,283.00,VWS V14.01,2013-08-08 16:47:00,
2013-08-08 11:52:00,63.1,57.9,30.01,South,175,4.0,9.0,83,0.01,,---,0.17,207.00,VWS V14.01,2013-08-08 16:52:00,
2013-08-08 11:57:00,63.1,57.9,30.01,South,173,4.0,9.0,83,0.01,,---,0.17,178.00,VWS V14.01,2013-08-08 16:57:00,
2013-08-08 12:02:00,63.1,57.9,30.02,South,172,2.0,9.0,83,0.01,,---,0.17,130.00,VWS V14.01,2013-08-08 17:02:00,
2013-08-08 12:07:00,63.1,57.9,30.02,South,171,4.0,5.0,83,0.01,,---,0.18,139.00,VWS V14.01,2013-08-08 17:07:00,
2013-08-08 12:12:00,62.9,58.0,30.01,South,171,2.0,5.0,84,0.03,,---,0.20,162.00,VWS V14.01,2013-08-08 17:12:00,
2013-08-08 12:17:00,62.9,58.7,30.02,South,171,1.0,5.0,86,0.03,,---,0.20,243.00,VWS V14.01,2013-08-08 17:17:00,
2013-08-08 12:22:00,62.9,58.7,30.02,South,171,0.0,1.0,86,0.03,,---,0.20,116.00,VWS V14.01,2013-08-08 17:22:00,
2013-08-08 12:27:00,62.9,59.0,30.02,South,171,0.0,1.0,87,0.03,,---,0.20,195.00,VWS V14.01,2013-08-08 17:27:00,
2013-08-08 12:32:00,63.0,58.8,30.02,South,171,2.0,2.0,86,0.03,,---,0.20,265.00,VWS V14.01,2013-08-08 17:32:00,
2013-08-08 12:37:00,63.1,59.2,30.02,South,171,0.0,0.0,87,0.03,,---,0.20,214.00,VWS V14.01,2013-08-08 17:37:00,
2013-08-08 12:42:00,63.3,59.0,30.02,South,171,0.0,1.0,86,0.03,,---,0.20,230.00,VWS V14.01,2013-08-08 17:42:00,
2013-08-08 12:47:00,63.3,59.4,30.02,South,171,1.0,1.0,87,0.03,,---,0.20,230.00,VWS V14.01,2013-08-08 17:47:00,
2013-08-08 12:52:00,63.5,59.6,30.01,South,171,0.0,2.0,87,0.03,,---,0.20,272.00,VWS V14.01,2013-08-08 17:52:00,
2013-08-08 12:57:00,63.8,60.2,30.01,South,171,0.0,2.0,88,0.03,,---,0.20,227.00,VWS V14.01,2013-08-08 17:57:00,
2013-08-08 13:02:00,64.0,60.4,30.01,South,171,0.0,2.0,88,0.03,,---,0.20,167.00,VWS V14.01,2013-08-08 18:02:00,
2013-08-08 13:07:00,64.2,60.6,30.02,South,171,0.0,0.0,88,0.04,,---,0.21,116.00,VWS V14.01,2013-08-08 18:07:00,
2013-08-08 13:12:00,64.1,60.2,30.01,South,171,0.0,0.0,87,0.07,,---,0.24,134.00,VWS V14.01,2013-08-08 18:12:00,
2013-08-08 13:17:00,64.1,60.2,30.01,South,171,0.0,0.0,87,0.07,,---,0.24,171.00,VWS V14.01,2013-08-08 18:17:00,
2013-08-08 13:22:00,64.1,60.2,30.01,South,171,0.0,0.0,87,0.09,,---,0.29,155.00,VWS V14.01,2013-08-08 18:22:00,
2013-08-08 13:27:00,63.8,60.2,30.01,South,171,0.0,0.0,88,0.09,,---,0.29,156.00,VWS V14.01,2013-08-08 18:27:00,
2013-08-08 13:32:00,63.7,60.4,30.01,South,171,0.0,0.0,89,0.09,,---,0.29,141.00,VWS V14.01,2013-08-08 18:32:00,
2013-08-08 13:37:00,63.8,60.5,30.01,South,171,0.0,0.0,89,0.09,,---,0.29,142.00,VWS V14.01,2013-08-08 18:37:00,
2013-08-08 13:42:00,63.8,60.5,30.00,South,171,0.0,0.0,89,0.09,,---,0.29,160.00,VWS V14.01,2013-08-08 18:42:00,
2013-08-08 13:47:00,63.8,60.5,30.00,South,171,0.0,0.0,89,0.09,,---,0.29,142.00,VWS V14.01,2013-08-08 18:47:00,
2013-08-08 13:52:00,63.9,60.6,30.00,South,171,0.0,0.0,89,0.09,,---,0.29,141.00,VWS V14.01,2013-08-08 18:52:00,
2013-08-08 13:57:00,64.0,61.0,30.00,South,171,0.0,0.0,90,0.09,,---,0.29,123.00,VWS V14.01,2013-08-08 18:57:00,
2013-08-08 14:02:00,64.0,61.0,30.00,South,171,0.0,0.0,90,0.09,,---,0.29,176.00,VWS V14.01,2013-08-08 19:02:00,
2013-08-08 14:07:00,64.1,61.1,30.00,SSE,154,0.0,0.0,90,0.09,,---,0.29,167.00,VWS V14.01,2013-08-08 19:07:00,
2013-08-08 14:12:00,64.1,61.1,30.00,SSE,153,0.0,0.0,90,0.09,,---,0.29,95.00,VWS V14.01,2013-08-08 19:12:00,
2013-08-08 14:17:00,64.2,61.2,30.00,SSE,153,0.0,0.0,90,0.09,,---,0.29,97.00,VWS V14.01,2013-08-08 19:17:00,
2013-08-08 14:22:00,64.2,61.2,29.99,SE,143,0.0,0.0,90,0.03,,---,0.29,156.00,VWS V14.01,2013-08-08 19:22:00,
2013-08-08 14:27:00,64.3,61.3,29.99,SE,141,0.0,0.0,90,0.03,,---,0.29,243.00,VWS V14.01,2013-08-08 19:27:00,
2013-08-08 14:32:00,64.5,61.2,29.99,SE,134,4.0,5.0,89,0.03,,---,0.29,348.00,VWS V14.01,2013-08-08 19:32:00,
2013-08-08 14:37:00,65.0,61.0,29.99,SE,132,3.0,5.0,87,0.00,,---,0.29,552.00,VWS V14.01,2013-08-08 19:37:00,
2013-08-08 14:42:00,66.0,62.0,29.98,ESE,114,2.0,5.0,87,0.00,,---,0.29,578.00,VWS V14.01,2013-08-08 19:42:00,
2013-08-08 14:47:00,66.5,61.5,29.98,SE,126,7.0,7.0,84,0.00,,---,0.29,341.00,VWS V14.01,2013-08-08 19:47:00,
2013-08-08 14:52:00,66.5,61.2,29.98,SE,125,6.0,9.0,83,0.00,,---,0.29,237.00,VWS V14.01,2013-08-08 19:52:00,
2013-08-08 14:57:00,66.6,61.6,29.98,SE,128,2.0,9.0,84,0.00,,---,0.29,174.00,VWS V14.01,2013-08-08 19:57:00,
2013-08-08 15:02:00,66.5,61.5,29.98,SE,126,0.0,9.0,84,0.00,,---,0.29,151.00,VWS V14.01,2013-08-08 20:02:00,
2013-08-08 15:07:00,66.5,61.5,29.98,SE,127,0.0,0.0,84,0.00,,---,0.29,142.00,VWS V14.01,2013-08-08 20:07:00,
2013-08-08 15:12:00,66.5,61.5,29.98,SE,126,0.0,0.0,84,0.00,,---,0.29,153.00,VWS V14.01,2013-08-08 20:12:00,
2013-08-08 15:17:00,66.5,61.2,29.98,SE,126,0.0,0.0,83,0.00,,---,0.29,139.00,VWS V14.01,2013-08-08 20:17:00,
2013-08-08 15:22:00,66.5,61.5,29.98,SE,126,0.0,0.0,84,0.00,,---,0.29,151.00,VWS V14.01,2013-08-08 20:22:00,
2013-08-08 15:27:00,66.6,61.6,29.98,SE,127,0.0,0.0,84,0.00,,---,0.29,171.00,VWS V14.01,2013-08-08 20:27:00,
2013-08-08 15:32:00,66.7,61.4,29.98,SE,126,0.0,0.0,83,0.00,,---,0.29,195.00,VWS V14.01,2013-08-08 20:32:00,
2013-08-08 15:37:00,66.8,61.1,29.98,SE,126,0.0,0.0,82,0.00,,---,0.29,185.00,VWS V14.01,2013-08-08 20:37:00,
2013-08-08 15:42:00,66.9,61.2,29.98,SE,126,0.0,0.0,82,0.00,,---,0.29,149.00,VWS V14.01,2013-08-08 20:42:00,
2013-08-08 15:47:00,67.0,61.3,29.98,SE,127,0.0,0.0,82,0.00,,---,0.29,176.00,VWS V14.01,2013-08-08 20:47:00,
2013-08-08 15:52:00,67.0,61.3,29.98,SE,127,0.0,0.0,82,0.00,,---,0.29,202.00,VWS V14.01,2013-08-08 20:52:00,
2013-08-08 15:57:00,66.9,61.2,29.98,SE,126,0.0,0.0,82,0.00,,---,0.29,186.00,VWS V14.01,2013-08-08 20:57:00,
2013-08-08 16:02:00,66.9,61.2,29.98,SE,127,0.0,0.0,82,0.00,,---,0.29,160.00,VWS V14.01,2013-08-08 21:02:00,
2013-08-08 16:08:00,66.9,60.9,29.98,SE,127,0.0,0.0,81,0.00,,---,0.29,172.00,VWS V14.01,2013-08-08 21:08:00,
2013-08-08 16:13:00,66.9,61.2,29.97,SE,127,0.0,0.0,82,0.00,,---,0.29,214.00,VWS V14.01,2013-08-08 21:13:00,
2013-08-08 16:18:00,67.0,61.3,29.98,SE,127,0.0,0.0,82,0.00,,---,0.29,258.00,VWS V14.01,2013-08-08 21:18:00,
2013-08-08 16:23:00,67.0,61.0,29.98,SE,127,0.0,0.0,81,0.00,,---,0.29,186.00,VWS V14.01,2013-08-08 21:23:00,
2013-08-08 16:28:00,67.1,61.4,29.98,SE,127,0.0,0.0,82,0.00,,---,0.29,155.00,VWS V14.01,2013-08-08 21:28:00,
2013-08-08 16:33:00,67.2,61.5,29.98,SE,127,0.0,0.0,82,0.00,,---,0.29,146.00,VWS V14.01,2013-08-08 21:33:00,
2013-08-08 16:38:00,67.2,61.2,29.97,SE,127,0.0,0.0,81,0.00,,---,0.29,206.00,VWS V14.01,2013-08-08 21:38:00,
2013-08-08 16:43:00,67.3,61.6,29.97,SE,127,0.0,0.0,82,0.00,,---,0.29,204.00,VWS V14.01,2013-08-08 21:43:00,
2013-08-08 16:48:00,67.3,61.3,29.98,SE,126,0.0,0.0,81,0.00,,---,0.29,132.00,VWS V14.01,2013-08-08 21:48:00,
2013-08-08 16:53:00,67.2,61.5,29.98,SE,126,0.0,0.0,82,0.00,,---,0.29,160.00,VWS V14.01,2013-08-08 21:53:00,
2013-08-08 16:58:00,67.2,61.9,29.98,SE,126,0.0,0.0,83,0.00,,---,0.29,251.00,VWS V14.01,2013-08-08 21:58:00,
2013-08-08 17:03:00,67.3,61.6,29.98,SE,125,0.0,0.0,82,0.00,,---,0.29,221.00,VWS V14.01,2013-08-08 22:03:00,
2013-08-08 17:08:00,67.4,61.4,29.98,SE,124,0.0,3.0,81,0.00,,---,0.29,292.00,VWS V14.01,2013-08-08 22:08:00,
2013-08-08 17:13:00,67.4,61.4,29.98,ESE,123,0.0,3.0,81,0.00,,---,0.29,200.00,VWS V14.01,2013-08-08 22:13:00,
2013-08-08 17:18:00,67.4,61.4,29.98,SE,124,0.0,3.0,81,0.00,,---,0.29,244.00,VWS V14.01,2013-08-08 22:18:00,
2013-08-08 17:23:00,67.5,61.8,29.98,SE,124,0.0,0.0,82,0.00,,---,0.29,202.00,VWS V14.01,2013-08-08 22:23:00,
2013-08-08 17:28:00,67.6,61.9,29.98,SE,124,0.0,0.0,82,0.00,,---,0.29,181.00,VWS V14.01,2013-08-08 22:28:00,
2013-08-08 17:33:00,67.6,61.9,29.98,ESE,123,0.0,0.0,82,0.00,,---,0.29,269.00,VWS V14.01,2013-08-08 22:33:00,
2013-08-08 17:38:00,67.7,62.0,29.98,ESE,123,0.0,1.0,82,0.00,,---,0.29,334.00,VWS V14.01,2013-08-08 22:38:00,
2013-08-08 17:43:00,67.9,62.2,29.98,ESE,118,0.0,4.0,82,0.00,,---,0.29,374.00,VWS V14.01,2013-08-08 22:43:00,
2013-08-08 17:49:00,67.9,62.2,29.98,ESE,107,0.0,0.0,82,0.00,,---,0.29,202.00,VWS V14.01,2013-08-08 22:49:00,
2013-08-08 17:54:00,67.9,62.2,29.98,ESE,107,0.0,0.0,82,0.00,,---,0.29,195.00,VWS V14.01,2013-08-08 22:54:00,
2013-08-08 17:59:00,67.9,62.2,29.97,ESE,107,0.0,4.0,82,0.00,,---,0.29,155.00,VWS V14.01,2013-08-08 22:59:00,
2013-08-08 18:04:00,67.9,62.2,29.97,ESE,106,0.0,0.0,82,0.00,,---,0.29,202.00,VWS V14.01,2013-08-08 23:04:00,
2013-08-08 18:09:00,67.9,62.2,29.97,ESE,107,0.0,0.0,82,0.00,,---,0.29,195.00,VWS V14.01,2013-08-08 23:09:00,
2013-08-08 18:14:00,67.9,62.2,29.97,ESE,105,0.0,4.0,82,0.00,,---,0.29,183.00,VWS V14.01,2013-08-08 23:14:00,
2013-08-08 18:19:00,67.9,61.9,29.96,ESE,105,0.0,0.0,81,0.00,,---,0.29,373.00,VWS V14.01,2013-08-08 23:19:00,
2013-08-08 18:24:00,67.9,61.9,29.97,ESE,103,0.0,5.0,81,0.00,,---,0.29,258.00,VWS V14.01,2013-08-08 23:24:00,
2013-08-08 18:29:00,68.0,62.3,29.96,ESE,103,0.0,5.0,82,0.00,,---,0.29,299.00,VWS V14.01,2013-08-08 23:29:00,
2013-08-08 18:34:00,68.2,62.5,29.96,East,94,2.0,5.0,82,0.00,,---,0.29,272.00,VWS V14.01,2013-08-08 23:34:00,
2013-08-08 18:40:00,68.3,62.6,29.97,East,93,1.0,5.0,82,0.00,,---,0.29,243.00,VWS V14.01,2013-08-08 23:40:00,
2013-08-08 18:45:00,68.5,63.1,29.97,East,93,0.0,5.0,83,0.00,,---,0.29,241.00,VWS V14.01,2013-08-08 23:45:00,
2013-08-08 18:50:00,68.5,62.8,29.97,East,93,0.0,3.0,82,0.00,,---,0.29,237.00,VWS V14.01,2013-08-08 23:50:00,
2013-08-08 18:55:00,68.5,62.8,29.97,East,93,2.0,4.0,82,0.00,,---,0.29,188.00,VWS V14.01,2013-08-08 23:55:00,
2013-08-08 19:00:00,68.4,63.0,29.97,East,91,0.0,6.0,83,0.00,,---,0.29,86.00,VWS V14.01,2013-08-09 00:00:00,
2013-08-08 19:05:00,68.2,62.5,29.97,East,92,0.0,0.0,82,0.00,,---,0.29,81.00,VWS V14.01,2013-08-09 00:05:00,
2013-08-08 19:10:00,68.0,62.7,29.97,East,90,0.0,0.0,83,0.00,,---,0.29,72.00,VWS V14.01,2013-08-09 00:10:00,
2013-08-08 19:15:00,67.9,62.9,29.97,East,90,0.0,0.0,84,0.00,,---,0.29,54.00,VWS V14.01,2013-08-09 00:15:00,
2013-08-08 19:20:00,67.7,62.7,29.97,East,90,0.0,4.0,84,0.00,,---,0.29,67.00,VWS V14.01,2013-08-09 00:20:00,
2013-08-08 19:26:00,67.5,62.5,29.97,East,90,0.0,4.0,84,0.00,,---,0.29,83.00,VWS V14.01,2013-08-09 00:26:00,
2013-08-08 19:31:00,67.5,62.5,29.97,East,90,0.0,4.0,84,0.00,,---,0.29,100.00,VWS V14.01,2013-08-09 00:31:00,
2013-08-08 19:36:00,67.4,62.4,29.97,East,90,0.0,0.0,84,0.00,,---,0.29,72.00,VWS V14.01,2013-08-09 00:36:00,
2013-08-08 19:41:00,67.4,62.4,29.97,East,90,0.0,2.0,84,0.00,,---,0.29,72.00,VWS V14.01,2013-08-09 00:41:00,
2013-08-08 19:46:00,67.4,62.4,29.97,East,90,0.0,2.0,84,0.00,,---,0.29,51.00,VWS V14.01,2013-08-09 00:46:00,
2013-08-08 19:51:00,67.3,62.3,29.97,East,90,0.0,1.0,84,0.00,,---,0.29,39.00,VWS V14.01,2013-08-09 00:51:00,
2013-08-08 19:56:00,67.2,62.2,29.96,East,90,0.0,1.0,84,0.00,,---,0.29,37.00,VWS V14.01,2013-08-09 00:56:00,
2013-08-08 20:01:00,67.1,62.1,29.97,East,90,0.0,1.0,84,0.00,,---,0.29,30.00,VWS V14.01,2013-08-09 01:01:00,
2013-08-08 20:06:00,66.9,62.2,29.97,East,90,0.0,0.0,85,0.00,,---,0.29,26.00,VWS V14.01,2013-08-09 01:06:00,
2013-08-08 20:11:00,66.7,62.0,29.97,East,90,0.0,0.0,85,0.00,,---,0.29,23.00,VWS V14.01,2013-08-09 01:11:00,
2013-08-08 20:17:00,66.5,61.9,29.97,East,90,0.0,0.0,85,0.00,,---,0.29,21.00,VWS V14.01,2013-08-09 01:17:00,
2013-08-08 20:22:00,66.3,62.0,29.97,East,90,0.0,0.0,86,0.00,,---,0.29,12.00,VWS V14.01,2013-08-09 01:22:00,
2013-08-08 20:27:00,66.2,61.9,29.97,East,90,0.0,4.0,86,0.00,,---,0.29,7.00,VWS V14.01,2013-08-09 01:27:00,
2013-08-08 20:32:00,66.0,61.7,29.97,East,90,0.0,4.0,86,0.00,,---,0.29,5.00,VWS V14.01,2013-08-09 01:32:00,
2013-08-08 20:37:00,65.8,61.5,29.97,East,90,0.0,0.0,86,0.00,,---,0.29,0.00,VWS V14.01,2013-08-09 01:37:00,
2013-08-08 20:42:00,65.6,61.6,29.97,East,90,0.0,0.0,87,0.00,,---,0.29,0.00,VWS V14.01,2013-08-09 01:42:00,
2013-08-08 20:47:00,65.4,61.4,29.97,East,90,0.0,0.0,87,0.00,,---,0.29,0.00,VWS V14.01,2013-08-09 01:47:00,
2013-08-08 20:52:00,65.1,61.5,29.97,East,90,0.0,0.0,88,0.00,,---,0.29,0.00,VWS V14.01,2013-08-09 01:52:00,
2013-08-08 20:57:00,64.9,61.3,29.96,East,90,0.0,0.0,88,0.00,,---,0.29,0.00,VWS V14.01,2013-08-09 01:57:00,
2013-08-08 21:02:00,64.7,61.1,29.97,East,90,0.0,0.0,88,0.00,,---,0.29,0.00,VWS V14.01,2013-08-09 02:02:00,
2013-08-08 21:07:00,64.5,60.9,29.97,East,90,0.0,0.0,88,0.00,,---,0.29,0.00,VWS V14.01,2013-08-09 02:07:00,
2013-08-08 21:12:00,64.3,60.7,29.97,East,90,0.0,0.0,88,0.00,,---,0.29,0.00,VWS V14.01,2013-08-09 02:12:00,
2013-08-08 21:18:00,64.1,60.5,29.97,East,90,0.0,0.0,88,0.00,,---,0.29,0.00,VWS V14.01,2013-08-09 02:18:00,
2013-08-08 21:23:00,64.0,60.7,29.97,East,90,0.0,0.0,89,0.00,,---,0.29,0.00,VWS V14.01,2013-08-09 02:23:00,
2013-08-08 21:28:00,63.8,60.5,29.97,East,90,0.0,0.0,89,0.00,,---,0.29,0.00,VWS V14.01,2013-08-09 02:28:00,
2013-08-08 21:33:00,63.6,60.3,29.97,East,90,0.0,0.0,89,0.00,,---,0.29,0.00,VWS V14.01,2013-08-09 02:33:00,
2013-08-08 21:38:00,63.3,60.3,29.97,East,90,0.0,0.0,90,0.00,,---,0.29,0.00,VWS V14.01,2013-08-09 02:38:00,
2013-08-08 21:43:00,63.0,60.0,29.97,East,90,0.0,0.0,90,0.00,,---,0.29,0.00,VWS V14.01,2013-08-09 02:43:00,
2013-08-08 21:48:00,62.8,60.1,29.97,East,90,0.0,0.0,91,0.00,,---,0.29,0.00,VWS V14.01,2013-08-09 02:48:00,
2013-08-08 21:53:00,62.6,59.9,29.97,East,90,0.0,0.0,91,0.00,,---,0.29,0.00,VWS V14.01,2013-08-09 02:53:00,
2013-08-08 21:58:00,62.4,59.7,29.97,East,90,0.0,0.0,91,0.00,,---,0.29,0.00,VWS V14.01,2013-08-09 02:58:00,
2013-08-08 22:03:00,62.3,59.6,29.97,East,90,0.0,0.0,91,0.00,,---,0.29,0.00,VWS V14.01,2013-08-09 03:03:00,
2013-08-08 22:08:00,62.2,59.8,29.97,East,90,0.0,0.0,92,0.00,,---,0.29,0.00,VWS V14.01,2013-08-09 03:08:00,
2013-08-08 22:13:00,61.9,59.2,29.98,East,90,0.0,0.0,91,0.00,,---,0.29,0.00,VWS V14.01,2013-08-09 03:13:00,
2013-08-08 22:18:00,61.6,59.0,29.97,East,90,0.0,0.0,91,0.00,,---,0.29,0.00,VWS V14.01,2013-08-09 03:18:00,
2013-08-08 22:23:00,61.4,58.8,29.98,East,90,0.0,0.0,91,0.00,,---,0.29,0.00,VWS V14.01,2013-08-09 03:23:00,
2013-08-08 22:28:00,61.3,59.0,29.98,East,90,0.0,0.0,92,0.00,,---,0.29,0.00,VWS V14.01,2013-08-09 03:28:00,
2013-08-08 22:33:00,61.3,59.0,29.98,East,90,0.0,0.0,92,0.00,,---,0.29,0.00,VWS V14.01,2013-08-09 03:33:00,
2013-08-08 22:38:00,61.2,58.9,29.98,East,90,0.0,0.0,92,0.00,,---,0.29,0.00,VWS V14.01,2013-08-09 03:38:00,
2013-08-08 22:43:00,61.3,59.3,29.98,East,90,0.0,0.0,93,0.00,,---,0.29,0.00,VWS V14.01,2013-08-09 03:43:00,
2013-08-08 22:48:00,61.2,59.2,29.98,East,90,0.0,0.0,93,0.00,,---,0.29,0.00,VWS V14.01,2013-08-09 03:48:00,
2013-08-08 22:54:00,60.9,58.9,29.99,East,90,0.0,1.0,93,0.00,,---,0.29,0.00,VWS V14.01,2013-08-09 03:54:00,
2013-08-08 22:59:00,60.7,58.7,29.99,East,90,0.0,1.0,93,0.00,,---,0.29,0.00,VWS V14.01,2013-08-09 03:59:00,
2013-08-08 23:01:00,60.7,58.7,29.99,East,90,0.0,1.0,93,0.00,,---,0.29,0.00,VWS V14.01,2013-08-09 04:01:00,
2013-08-08 23:06:00,60.5,58.5,29.99,East,90,0.0,0.0,93,0.00,,---,0.29,0.00,VWS V14.01,2013-08-09 04:06:00,
2013-08-08 23:11:00,60.4,58.4,29.99,East,90,0.0,0.0,93,0.00,,---,0.29,0.00,VWS V14.01,2013-08-09 04:11:00,
2013-08-08 23:16:00,60.1,58.1,29.99,East,90,0.0,0.0,93,0.00,,---,0.29,0.00,VWS V14.01,2013-08-09 04:16:00,
2013-08-08 23:21:00,59.8,57.8,29.99,East,90,0.0,0.0,93,0.00,,---,0.29,0.00,VWS V14.01,2013-08-09 04:21:00,
2013-08-08 23:26:00,59.6,57.6,29.99,East,90,0.0,0.0,93,0.00,,---,0.29,0.00,VWS V14.01,2013-08-09 04:26:00,
2013-08-08 23:31:00,59.5,57.5,29.99,East,90,0.0,0.0,93,0.00,,---,0.29,0.00,VWS V14.01,2013-08-09 04:31:00,
2013-08-08 23:36:00,59.4,57.4,29.99,East,90,0.0,0.0,93,0.00,,---,0.29,0.00,VWS V14.01,2013-08-09 04:36:00,
2013-08-08 23:41:00,59.3,57.3,29.99,East,90,0.0,0.0,93,0.00,,---,0.29,0.00,VWS V14.01,2013-08-09 04:41:00,
2013-08-08 23:46:00,59.1,57.1,29.99,East,90,0.0,0.0,93,0.00,,---,0.29,0.00,VWS V14.01,2013-08-09 04:46:00,
2013-08-08 23:51:00,59.3,57.6,29.99,East,90,0.0,0.0,94,0.00,,---,0.29,0.00,VWS V14.01,2013-08-09 04:51:00,
2013-08-08 23:56:00,59.5,57.8,29.99,East,90,0.0,0.0,94,0.00,,---,0.29,0.00,VWS V14.01,2013-08-09 04:56:00,